Location: Ailingen
(47.6833°N, 9.5000°E)
Time: 05:36:08
(UTC+00:00)

Okean 1 Rocket - Pass Details

Date: 18 November 2025
Orbit: 599 x 628 km, 82.5° (Epoch: 04 December)

Event Time Altitude Azimuth Distance (km) Brightness Sun altitude
Rises 18:00:16 0° 192° (SSW) 2,888 6.7 -23.0°
Reaches altitude 10° 18:02:30 10° 194° (SSW) 1,982 5.8 -23.4°
Maximum altitude 18:06:53 74° 280° (W) 646 3.1 -24.1°
Enters shadow 18:08:23 40° 356° (N) 913 3.8 -24.4°
